Weather History for Riverside March, CA

Change the Weather History Date:

Sunday, August 11, 2013

  Actual Average Record
Temperature  
Mean Temperature 72 °F -  
Max Temperature 89 °F 92 °F 105 °F (2012)
Min Temperature 54 °F 62 °F 50 °F (2010)
Cooling Degree Days 6    
Growing Degree Days 22 (Base 50)    
Moisture  
Dew Point 54 °F    
Average Humidity 59    
Maximum Humidity 100    
Minimum Humidity 24    
Precipitation  
Precipitation 0.00 in - - ()
Sea Level Pressure  
Sea Level Pressure 29.94 in    
Wind  
Wind Speed 5 mph (NW)    
Max Wind Speed 15 mph    
Max Gust Speed 20 mph    
Visibility 10 miles    
Events      
Averages and records for this station are not official NWS values.
T = Trace of Precipitation, MM = Missing Value Source: NWS Daily Summary

Daily Weather History Graph

Daily Weather History Graph

Search for Another Location

Airport:

Trip Planner

Search our weather history database for the weather conditions in past years. The results will help you decide how hot, cold, wet, or windy it might be!

Date:

Astronomy

Aug. 11, 2013 Rise Set
Actual Time 6:08 AM PDT 7:39 PM PDT
Civil Twilight 5:41 AM PDT 8:06 PM PDT
Nautical Twilight 5:09 AM PDT 8:38 PM PDT
Astronomical Twilight 4:35 AM PDT 9:11 PM PDT
Moon 10:43 AM PDT (8/11) 10:15 PM PDT (8/11)
Length of Visible Light 14h 24m
Length of Day
13h 31m
Waxing Crescent, 23% of the Moon is Illuminated
Aug 11
Waxing Crescent
Aug 14
First Quarter
Aug 20
Full
Aug 28
Last Quarter
Sep 5
New

Hourly Weather History & Observations

Time (PDT) Temp. Heat Index Dew Point Humidity Pressure Visibility Wind Dir Wind Speed Gust Speed Precip Events Conditions
12:58 AM 59.4 °F - 52.0 °F 77% 29.97 in 10.0 mi WNW 4.6 mph - N/A   Clear
1:58 AM 57.6 °F - 52.2 °F 82% 29.97 in 10.0 mi WNW 4.6 mph - N/A   Clear
2:58 AM 57.6 °F - 53.6 °F 87% 29.96 in 10.0 mi NW 3.5 mph - N/A   Clear
3:58 AM 55.8 °F - 55.4 °F 99% 29.95 in 10.0 mi WNW 3.5 mph - N/A   Clear
4:58 AM 54.9 °F - 54.0 °F 97% 29.95 in 10.0 mi Calm Calm - N/A   Clear
5:58 AM 54.7 °F - 54.5 °F 99% 29.96 in 10.0 mi NW 2.3 mph - N/A   Clear
6:58 AM 57.6 °F - 57.6 °F 100% 29.97 in 10.0 mi Calm Calm - N/A   Clear
7:58 AM 64.2 °F - 59.4 °F 84% 29.97 in 10.0 mi East 1.2 mph - N/A   Clear
8:58 AM 68.7 °F - 58.3 °F 69% 29.97 in 10.0 mi ENE 1.2 mph - N/A   Clear
9:58 AM 74.7 °F - 56.3 °F 53% 29.97 in 10.0 mi Calm Calm - N/A   Clear
10:58 AM 79.2 °F - 53.6 °F 41% 29.96 in 10.0 mi Variable 4.6 mph - N/A   Clear
11:58 AM 82.9 °F 82.4 °F 56.7 °F 41% 29.94 in 10.0 mi NW 6.9 mph - N/A   Clear
12:58 PM 85.8 °F - 50.7 °F 30% 29.93 in 10.0 mi NW 6.9 mph - N/A   Clear
1:58 PM 86.9 °F - 51.8 °F 30% 29.92 in 10.0 mi WNW 10.4 mph - N/A   Clear
2:51 PM 87.8 °F - 51.8 °F 29% 29.94 in 10.0 mi WNW 11.5 mph 19.6 mph N/A   Clear
2:58 PM 88.3 °F - 52.5 °F 29% 29.90 in 10.0 mi NW 15.0 mph - N/A   Clear
3:58 PM 89.2 °F - 48.0 °F 24% 29.89 in 10.0 mi WNW 11.5 mph - N/A   Clear
4:58 PM 86.2 °F 84.2 °F 53.4 °F 32% 29.88 in 10.0 mi WNW 12.7 mph - N/A   Clear
5:58 PM 83.7 °F - 52.7 °F 34% 29.88 in 10.0 mi WNW 13.8 mph - N/A   Clear
6:58 PM 79.7 °F - 53.6 °F 40% 29.88 in 10.0 mi WNW 12.7 mph - N/A   Clear
7:58 PM 74.8 °F - 54.7 °F 49% 29.90 in 10.0 mi NW 8.1 mph - N/A   Clear
8:58 PM 71.1 °F - 54.1 °F 55% 29.92 in 10.0 mi NW 5.8 mph - N/A   Clear
9:58 PM 68.0 °F - 53.4 °F 60% 29.94 in 10.0 mi NW 3.5 mph - N/A   Clear
10:58 PM 66.9 °F - 55.4 °F 66% 29.94 in 10.0 mi Calm Calm - N/A   Clear
11:58 PM 63.9 °F - 54.1 °F 71% 29.93 in 10.0 mi WNW 3.5 mph - N/A   Clear